Newton Municipal
Wednesday 12:15 AM
Temperature55° (55°/55°)
Dew Point54°
Relative Humidity94
%
Visibility10
mi
Pressure1019.3
mb
Wind Direction
Wind SpeedCalm
Precipitation Today0.00"

Last 30 Observations

Time PresWx Temp DP Feels RH% Vsby Pressure Ceiling Direction Speed 1h Precip
11:55 PM 57° 54° 88
%
10
mi
1019.7
mb
Calm 0.00"
11:35 PM 55° 54° 94
%
10
mi
1019.7
mb
Calm 0.00"
11:15 PM 59° 54° 82
%
10
mi
1019.7
mb
SSW
210°
3
mph
0.00"
10:55 PM 59° 54° 82
%
10
mi
1019.7
mb
SW
230°
3
mph
0.00"
10:35 PM 55° 54° 94
%
10
mi
1019.7
mb
Calm 0.00"
10:15 PM 57° 55° 94
%
10
mi
1019.7
mb
Calm 0.00"
9:55 PM 59° 55° 88
%
10
mi
1019.3
mb
Calm 0.00"
9:35 PM 57° 55° 94
%
10
mi
1019.3
mb
Calm 0.00"
9:15 PM 61° 55° 82
%
10
mi
1019.0
mb
Calm 0.00"
8:55 PM 63° 57° 83
%
9
mi
1019.0
mb
Calm 0.00"
8:35 PM 63° 57° 83
%
10
mi
1019.0
mb
Calm 0.00"
8:15 PM 66° 55° 68
%
10
mi
1019.0
mb
Calm 0.00"
7:55 PM 68° 55° 64
%
10
mi
1019.0
mb
Calm 0.00"
7:35 PM 70° 55° 60
%
10
mi
1019.0
mb
Calm 0.00"
7:15 PM 72° 54° 71°53
%
10
mi
1019.0
mb
Calm 0.00"
6:55 PM 72° 48° 71°43
%
10
mi
1019.0
mb
SE
130°
5
mph
0.00"
6:35 PM 72° 50° 71°46
%
10
mi
1019.3
mb
Calm 0.00"
6:15 PM 73° 46° 72°38
%
10
mi
1019.3
mb
6,000
ft
ESE
120°
5
mph
0.00"
5:55 PM 73° 50° 72°44
%
10
mi
1019.7
mb
6,000
ft
E
80°
7
mph
0.00"
5:35 PM 73° 50° 72°44
%
10
mi
1019.7
mb
6,000
ft
Calm 0.00"
5:15 PM 73° 50° 72°44
%
10
mi
1019.7
mb
SW
230°
6
mph
0.00"
4:55 PM 72° 50° 71°46
%
10
mi
1019.7
mb
Calm 0.00"
4:35 PM 72° 48° 71°43
%
10
mi
1020.0
mb
5,500
ft
E
100°
5
mph
0.00"
4:15 PM 73° 48° 72°41
%
10
mi
1020.0
mb
5,500
ft
Variable 7
mph
0.00"
3:55 PM 72° 48° 71°43
%
1020.0
mb
Calm 0.00"
3:35 PM 73° 48° 72°41
%
10
mi
1020.3
mb
6,000
ft
Variable 3
mph
0.00"
3:15 PM 72° 48° 71°43
%
10
mi
1020.7
mb
Calm 0.00"
2:55 PM 72° 48° 71°43
%
10
mi
1020.7
mb
5,500
ft
E
80°
6
mph
0.00"
2:35 PM 72° 48° 71°43
%
10
mi
1020.7
mb
6,500
ft
SSW
210°
3
mph
0.00"
2:15 PM 72° 48° 71°43
%
9
mi
1020.7
mb
5
mph
0.00"